RYR67UB EGSS-EDJA

Flight info

Callsign RYR67UB
Flight time 1h 25m
Altitude 39000
Route CLN M84 KONAN UL607 MATUG DCT AMASI DCT BOMBI/N0379F270 T104 DKB/N0359F230 Z818 ELVAG Z76 ABGAS/N0364F240 Z79 LUPOL LUPOL1D
Aircraft B38M/M-SDE1FGHILORVWXY/HB1

Departure

Time 2026-05-06 16:14
Airport London Stansted Airport (EGSS)

Arrival

Time 2026-05-06 17:40
Airport Memmingen Allgau Airport (EDJA)
Time Latitude Longitude Altitude Speed Heading
2026-05-06 15:31 51.89021 0.25689 353 ft 0 kts 44°
2026-05-06 15:53 51.89011 0.25674 358 ft 4 kts 29°
2026-05-06 15:53 51.88988 0.25666 353 ft 4 kts 338°
2026-05-06 15:54 51.88975 0.25679 354 ft 2 kts 313°
2026-05-06 16:01 51.88989 0.25654 351 ft 6 kts 313°
2026-05-06 16:01 51.89023 0.25595 342 ft 8 kts 313°
2026-05-06 16:02 51.89067 0.25519 344 ft 10 kts 313°
2026-05-06 16:02 51.89118 0.25430 353 ft 11 kts 313°
2026-05-06 16:02 51.89167 0.25342 344 ft 8 kts 308°
2026-05-06 16:02 51.89166 0.25265 346 ft 8 kts 231°
2026-05-06 16:03 51.89118 0.25190 352 ft 11 kts 223°
2026-05-06 16:03 51.89053 0.25092 351 ft 14 kts 223°
2026-05-06 16:03 51.88973 0.24973 351 ft 17 kts 223°
2026-05-06 16:03 51.88890 0.24848 355 ft 17 kts 223°
2026-05-06 16:04 51.88800 0.24712 352 ft 18 kts 223°
2026-05-06 16:04 51.88709 0.24576 349 ft 17 kts 223°
2026-05-06 16:04 51.88616 0.24437 354 ft 18 kts 223°
2026-05-06 16:04 51.88527 0.24305 355 ft 18 kts 223°
2026-05-06 16:05 51.88436 0.24166 346 ft 18 kts 223°
2026-05-06 16:05 51.88338 0.24020 349 ft 20 kts 223°
2026-05-06 16:05 51.88236 0.23867 336 ft 20 kts 223°
2026-05-06 16:05 51.88135 0.23716 336 ft 18 kts 223°
2026-05-06 16:06 51.88039 0.23573 333 ft 20 kts 223°
2026-05-06 16:06 51.87957 0.23448 336 ft 16 kts 223°
2026-05-06 16:06 51.87876 0.23327 335 ft 16 kts 223°
2026-05-06 16:06 51.87798 0.23210 336 ft 16 kts 223°
2026-05-06 16:07 51.87741 0.23125 336 ft 7 kts 224°
2026-05-06 16:07 51.87730 0.23050 337 ft 8 kts 284°
2026-05-06 16:07 51.87765 0.22977 333 ft 9 kts 312°
2026-05-06 16:07 51.87785 0.22899 335 ft 7 kts 248°
2026-05-06 16:08 51.87745 0.22833 335 ft 10 kts 224°
2026-05-06 16:08 51.87689 0.22750 336 ft 12 kts 222°
2026-05-06 16:08 51.87622 0.22649 339 ft 13 kts 223°
2026-05-06 16:08 51.87548 0.22538 332 ft 10 kts 223°
2026-05-06 16:09 51.87514 0.22462 332 ft 8 kts 268°
2026-05-06 16:09 51.87539 0.22394 331 ft 8 kts 312°
2026-05-06 16:09 51.87568 0.22341 330 ft 0 kts 312°
2026-05-06 16:09 51.87574 0.22331 329 ft 2 kts 312°
2026-05-06 16:10 51.87576 0.22328 329 ft 0 kts 312°
2026-05-06 16:12 51.87577 0.22325 328 ft 2 kts 312°
2026-05-06 16:12 51.87600 0.22290 326 ft 6 kts 320°
2026-05-06 16:12 51.87645 0.22262 328 ft 7 kts 351°
2026-05-06 16:12 51.87696 0.22279 328 ft 8 kts 27°
2026-05-06 16:13 51.87728 0.22321 333 ft 0 kts 43°
2026-05-06 16:13 51.87728 0.22322 333 ft 2 kts 43°
2026-05-06 16:13 51.87879 0.22548 336 ft 70 kts 43°
2026-05-06 16:14 51.88431 0.23375 338 ft 141 kts 43°
2026-05-06 16:14 51.89260 0.24683 394 ft 186 kts 44°
2026-05-06 16:14 51.90217 0.26143 1166 ft 186 kts 41°
2026-05-06 16:14 51.90762 0.26956 1819 ft 175 kts 39°
2026-05-06 16:15 51.91482 0.28656 2061 ft 193 kts 64°
2026-05-06 16:15 51.91711 0.30894 2171 ft 218 kts 92°
2026-05-06 16:15 51.91264 0.33351 2710 ft 237 kts 111°
2026-05-06 16:15 51.90536 0.35855 3278 ft 254 kts 114°
2026-05-06 16:16 51.89740 0.38489 3835 ft 265 kts 115°
2026-05-06 16:16 51.88943 0.41179 3982 ft 266 kts 112°
2026-05-06 16:16 51.88167 0.43883 3982 ft 264 kts 112°
2026-05-06 16:16 51.87397 0.46576 3979 ft 264 kts 113°
2026-05-06 16:17 51.86622 0.49260 3993 ft 263 kts 114°
2026-05-06 16:17 51.85849 0.51929 3985 ft 262 kts 112°
2026-05-06 16:17 51.85078 0.54605 3985 ft 262 kts 114°
2026-05-06 16:17 51.84309 0.57274 3990 ft 262 kts 113°
2026-05-06 16:18 51.83537 0.59946 4008 ft 263 kts 113°
2026-05-06 16:18 51.82954 0.62721 4509 ft 261 kts 95°
2026-05-06 16:18 51.82957 0.65681 4949 ft 265 kts 86°
2026-05-06 16:18 51.83097 0.68631 4969 ft 262 kts 84°
2026-05-06 16:19 51.83236 0.71326 4966 ft 260 kts 85°
2026-05-06 16:19 51.83353 0.74254 5094 ft 262 kts 85°
2026-05-06 16:19 51.83457 0.77197 5716 ft 264 kts 86°
2026-05-06 16:19 51.83569 0.80151 5975 ft 263 kts 86°
2026-05-06 16:20 51.83684 0.83094 5965 ft 261 kts 85°
2026-05-06 16:20 51.83796 0.86028 5966 ft 262 kts 85°
2026-05-06 16:20 51.83906 0.88961 5961 ft 261 kts 86°
2026-05-06 16:20 51.84016 0.91885 5964 ft 260 kts 86°
2026-05-06 16:21 51.84125 0.94813 5958 ft 261 kts 86°
2026-05-06 16:21 51.84233 0.97748 5960 ft 262 kts 84°
2026-05-06 16:21 51.84343 1.00729 5960 ft 268 kts 84°
2026-05-06 16:21 51.84452 1.03698 5958 ft 268 kts 85°
2026-05-06 16:22 51.84560 1.06699 5956 ft 267 kts 85°
2026-05-06 16:22 51.84668 1.09703 5958 ft 268 kts 85°
2026-05-06 16:22 51.84638 1.12711 5965 ft 270 kts 101°
2026-05-06 16:22 51.83828 1.15462 5992 ft 276 kts 128°
2026-05-06 16:23 51.82349 1.17464 6416 ft 279 kts 144°
2026-05-06 16:23 51.80720 1.19204 7234 ft 283 kts 147°
2026-05-06 16:23 51.79061 1.20930 8080 ft 285 kts 147°
2026-05-06 16:23 51.77393 1.22698 8887 ft 289 kts 146°
2026-05-06 16:24 51.75707 1.24498 9690 ft 293 kts 147°
2026-05-06 16:24 51.73994 1.26320 10377 ft 299 kts 147°
2026-05-06 16:24 51.72215 1.28203 10832 ft 313 kts 147°
2026-05-06 16:24 51.70351 1.30174 11223 ft 328 kts 147°
2026-05-06 16:25 51.68416 1.32222 11797 ft 337 kts 147°
2026-05-06 16:25 51.66441 1.34310 12441 ft 342 kts 148°
2026-05-06 16:25 51.65034 1.35571 12892 ft 344 kts 159°
2026-05-06 16:25 51.62696 1.36365 13580 ft 346 kts 177°
2026-05-06 16:26 51.60281 1.36552 14208 ft 349 kts 180°
2026-05-06 16:26 51.57847 1.36630 14834 ft 352 kts 180°
2026-05-06 16:26 51.55386 1.36744 15454 ft 355 kts 179°
2026-05-06 16:26 51.52904 1.36912 16078 ft 358 kts 179°
2026-05-06 16:27 51.50403 1.37076 16702 ft 361 kts 179°
2026-05-06 16:27 51.47882 1.37217 17322 ft 364 kts 180°
2026-05-06 16:27 51.45355 1.37525 17932 ft 368 kts 168°
2026-05-06 16:27 51.43015 1.39213 18497 ft 374 kts 146°
2026-05-06 16:28 51.41139 1.42125 19006 ft 379 kts 130°
2026-05-06 16:28 51.39525 1.45480 19510 ft 382 kts 128°
2026-05-06 16:28 51.37947 1.48921 20016 ft 385 kts 128°
2026-05-06 16:28 51.36316 1.52335 20507 ft 387 kts 129°
2026-05-06 16:29 51.34664 1.55684 20980 ft 390 kts 130°
2026-05-06 16:29 51.32992 1.59115 21459 ft 393 kts 129°
2026-05-06 16:29 51.31322 1.62596 21914 ft 396 kts 129°
2026-05-06 16:29 51.29637 1.66092 22405 ft 398 kts 129°
2026-05-06 16:30 51.27931 1.69597 22871 ft 401 kts 130°
2026-05-06 16:30 51.26771 1.71974 23177 ft 403 kts 130°
2026-05-06 16:30 51.24485 1.76672 23736 ft 406 kts 129°
2026-05-06 16:30 51.22746 1.80249 24101 ft 409 kts 130°
2026-05-06 16:31 51.20996 1.83834 24491 ft 411 kts 130°
2026-05-06 16:31 51.19232 1.87440 24851 ft 413 kts 130°
2026-05-06 16:31 51.17460 1.91061 25248 ft 415 kts 129°
2026-05-06 16:31 51.15683 1.94689 25624 ft 416 kts 129°
2026-05-06 16:32 51.13987 1.98436 25987 ft 420 kts 118°
2026-05-06 16:32 51.13002 2.02821 26349 ft 424 kts 103°
2026-05-06 16:32 51.12619 2.07485 26693 ft 427 kts 95°
2026-05-06 16:32 51.12430 2.12211 27032 ft 428 kts 94°
2026-05-06 16:33 51.12208 2.16943 27354 ft 430 kts 96°
2026-05-06 16:33 51.11922 2.21698 27669 ft 432 kts 96°
2026-05-06 16:33 51.11637 2.26499 27986 ft 434 kts 96°
2026-05-06 16:34 51.11133 2.36083 28602 ft 438 kts 95°
2026-05-06 16:34 51.10860 2.40910 28904 ft 439 kts 96°
2026-05-06 16:34 51.10579 2.45759 29201 ft 441 kts 96°
2026-05-06 16:34 51.10303 2.50626 29492 ft 443 kts 96°
2026-05-06 16:35 51.10029 2.55516 29790 ft 444 kts 96°
2026-05-06 16:35 51.09748 2.60419 30052 ft 446 kts 96°
2026-05-06 16:35 51.09392 2.65320 30287 ft 447 kts 102°
2026-05-06 16:35 51.08597 2.70098 30523 ft 447 kts 108°
2026-05-06 16:36 51.07726 2.74857 30755 ft 449 kts 108°
2026-05-06 16:36 51.06849 2.79630 30987 ft 450 kts 106°
2026-05-06 16:36 51.05985 2.84422 31212 ft 452 kts 106°
2026-05-06 16:36 51.05117 2.89227 31433 ft 453 kts 107°
2026-05-06 16:37 51.04270 2.93864 31657 ft 454 kts 107°
2026-05-06 16:37 51.03382 2.98692 31880 ft 456 kts 106°
2026-05-06 16:37 51.02495 3.03529 32091 ft 457 kts 108°
2026-05-06 16:37 51.01605 3.08380 32304 ft 459 kts 108°
2026-05-06 16:38 51.00709 3.13245 32530 ft 460 kts 108°
2026-05-06 16:38 50.99808 3.18112 32831 ft 459 kts 108°
2026-05-06 16:38 50.98906 3.22973 33124 ft 459 kts 107°
2026-05-06 16:38 50.98017 3.27757 33427 ft 458 kts 108°
2026-05-06 16:39 50.97115 3.32599 33716 ft 458 kts 109°
2026-05-06 16:39 50.96211 3.37440 34006 ft 457 kts 108°
2026-05-06 16:39 50.95305 3.42272 34269 ft 457 kts 108°
2026-05-06 16:39 50.94399 3.47099 34517 ft 457 kts 107°
2026-05-06 16:40 50.93490 3.51927 34763 ft 457 kts 107°
2026-05-06 16:40 50.92578 3.56752 35026 ft 457 kts 108°
2026-05-06 16:40 50.91666 3.61573 35289 ft 457 kts 108°
2026-05-06 16:40 50.90751 3.66396 35545 ft 457 kts 108°
2026-05-06 16:41 50.89825 3.71210 35802 ft 458 kts 109°
2026-05-06 16:41 50.88886 3.76047 36067 ft 458 kts 108°
2026-05-06 16:41 50.87954 3.80871 36332 ft 459 kts 108°
2026-05-06 16:41 50.87021 3.85702 36607 ft 459 kts 108°
2026-05-06 16:42 50.86082 3.90543 36877 ft 460 kts 109°
2026-05-06 16:42 50.85138 3.95381 37133 ft 461 kts 109°
2026-05-06 16:42 50.84191 4.00230 37375 ft 462 kts 109°
2026-05-06 16:42 50.83240 4.05096 37627 ft 463 kts 109°
2026-05-06 16:43 50.82286 4.09960 37882 ft 464 kts 109°
2026-05-06 16:43 50.81326 4.14838 38120 ft 465 kts 109°
2026-05-06 16:43 50.80362 4.19726 38375 ft 466 kts 109°
2026-05-06 16:43 50.79396 4.24614 38620 ft 467 kts 109°
2026-05-06 16:44 50.78425 4.29514 38829 ft 467 kts 109°
2026-05-06 16:44 50.76495 4.39223 38876 ft 460 kts 109°
2026-05-06 16:45 50.74578 4.48806 38880 ft 456 kts 109°
2026-05-06 16:45 50.72663 4.58341 38877 ft 455 kts 109°
2026-05-06 16:46 50.70791 4.67880 38718 ft 455 kts 109°
2026-05-06 16:46 50.69892 4.72643 38823 ft 452 kts 109°
2026-05-06 16:46 50.68969 4.77394 38876 ft 453 kts 110°
2026-05-06 16:47 50.67116 4.86808 38873 ft 452 kts 109°
2026-05-06 16:47 50.65241 4.96331 38870 ft 452 kts 110°
2026-05-06 16:48 50.63286 5.05667 38880 ft 451 kts 110°
2026-05-06 16:48 50.61353 5.15146 38880 ft 451 kts 111°
2026-05-06 16:49 50.59411 5.24470 38880 ft 451 kts 111°
2026-05-06 16:49 50.57461 5.33860 38880 ft 451 kts 111°
2026-05-06 16:50 50.55501 5.43229 38879 ft 451 kts 111°
2026-05-06 16:50 50.53534 5.52593 38882 ft 451 kts 111°
2026-05-06 16:51 50.51579 5.61942 38879 ft 451 kts 108°
2026-05-06 16:51 50.50292 5.71603 38894 ft 451 kts 104°
2026-05-06 16:52 50.49050 5.81250 38884 ft 450 kts 105°
2026-05-06 16:52 50.47793 5.90858 38885 ft 450 kts 105°
2026-05-06 16:53 50.46533 6.00485 38870 ft 450 kts 105°
2026-05-06 16:53 50.45263 6.10088 38861 ft 449 kts 105°
2026-05-06 16:54 50.43989 6.19678 38846 ft 449 kts 105°
2026-05-06 16:54 50.42707 6.29253 38847 ft 449 kts 105°
2026-05-06 16:55 50.41416 6.38827 38833 ft 448 kts 105°
2026-05-06 16:55 50.40099 6.48378 38823 ft 448 kts 106°
2026-05-06 16:56 50.38777 6.57941 38830 ft 449 kts 106°
2026-05-06 16:56 50.37446 6.67504 38827 ft 449 kts 106°
2026-05-06 16:57 50.36108 6.77043 38826 ft 449 kts 106°
2026-05-06 16:57 50.34760 6.86605 38821 ft 449 kts 106°
2026-05-06 16:58 50.33407 6.96133 38826 ft 449 kts 107°
2026-05-06 16:58 50.32045 7.05670 38823 ft 449 kts 107°
2026-05-06 16:59 50.30675 7.15196 38826 ft 448 kts 107°
2026-05-06 16:59 50.29299 7.24712 38822 ft 448 kts 107°
2026-05-06 17:00 50.27933 7.34095 38811 ft 449 kts 107°
2026-05-06 17:00 50.26523 7.43723 38814 ft 448 kts 107°
2026-05-06 17:01 50.25125 7.53209 38816 ft 448 kts 107°
2026-05-06 17:01 50.23719 7.62689 38814 ft 448 kts 107°
2026-05-06 17:02 50.22311 7.72171 38821 ft 448 kts 107°
2026-05-06 17:02 50.20892 7.81651 38824 ft 448 kts 107°
2026-05-06 17:03 50.19465 7.91132 38809 ft 448 kts 107°
2026-05-06 17:03 50.18042 8.00535 38812 ft 448 kts 107°
2026-05-06 17:04 50.16600 8.10001 38815 ft 449 kts 108°
2026-05-06 17:04 50.15150 8.19465 38815 ft 449 kts 108°
2026-05-06 17:05 50.13692 8.28924 38809 ft 449 kts 108°
2026-05-06 17:05 50.12225 8.38386 38817 ft 449 kts 108°
2026-05-06 17:06 50.10750 8.47846 38796 ft 448 kts 108°
2026-05-06 17:06 50.09270 8.57278 38801 ft 448 kts 108°
2026-05-06 17:07 50.07784 8.66701 38801 ft 448 kts 108°
2026-05-06 17:07 50.06268 8.76108 38805 ft 446 kts 113°
2026-05-06 17:07 50.04932 8.80391 38821 ft 438 kts 130°
2026-05-06 17:08 50.02948 8.83916 38829 ft 431 kts 141°
2026-05-06 17:08 49.98501 8.90174 38811 ft 432 kts 142°
2026-05-06 17:09 49.94048 8.96464 38808 ft 432 kts 141°
2026-05-06 17:09 49.89599 9.02739 38811 ft 432 kts 142°
2026-05-06 17:10 49.85140 9.08991 38801 ft 432 kts 142°
2026-05-06 17:10 49.81439 9.14186 38799 ft 432 kts 142°
2026-05-06 17:11 49.76974 9.20422 38810 ft 432 kts 142°
2026-05-06 17:11 49.72504 9.26658 38807 ft 433 kts 142°
2026-05-06 17:12 49.68063 9.32833 38810 ft 432 kts 142°
2026-05-06 17:12 49.63584 9.39046 38809 ft 432 kts 142°
2026-05-06 17:13 49.59398 9.45758 38810 ft 436 kts 135°
2026-05-06 17:13 49.55406 9.52768 38808 ft 435 kts 135°
2026-05-06 17:14 49.51406 9.59764 38806 ft 435 kts 135°
2026-05-06 17:14 49.47402 9.66758 38809 ft 435 kts 135°
2026-05-06 17:15 49.43396 9.73730 38811 ft 435 kts 135°
2026-05-06 17:15 49.39387 9.80694 38810 ft 435 kts 135°
2026-05-06 17:15 49.37377 9.84176 38612 ft 437 kts 135°
2026-05-06 17:16 49.35354 9.87669 38036 ft 439 kts 136°
2026-05-06 17:16 49.33333 9.91154 37531 ft 435 kts 136°
2026-05-06 17:16 49.31329 9.94609 37005 ft 432 kts 136°
2026-05-06 17:16 49.29339 9.98034 36494 ft 429 kts 136°
2026-05-06 17:17 49.27359 10.01435 35981 ft 427 kts 136°
2026-05-06 17:17 49.25382 10.04825 35457 ft 427 kts 136°
2026-05-06 17:17 49.23403 10.08216 34935 ft 426 kts 137°
2026-05-06 17:17 49.21436 10.11586 34417 ft 423 kts 137°
2026-05-06 17:18 49.19481 10.14929 33897 ft 421 kts 137°
2026-05-06 17:18 49.17536 10.18255 33342 ft 417 kts 137°
2026-05-06 17:18 49.15507 10.21348 32838 ft 405 kts 150°
2026-05-06 17:18 49.13040 10.23191 32321 ft 390 kts 166°
2026-05-06 17:19 49.10428 10.24076 31857 ft 380 kts 178°
2026-05-06 17:19 49.07808 10.24192 31376 ft 374 kts 183°
2026-05-06 17:19 49.05218 10.24175 30907 ft 371 kts 181°
2026-05-06 17:19 49.02648 10.24278 30453 ft 368 kts 180°
2026-05-06 17:20 49.00105 10.24442 30002 ft 364 kts 180°
2026-05-06 17:20 48.97582 10.24561 29521 ft 361 kts 181°
2026-05-06 17:20 48.95088 10.24820 29074 ft 358 kts 173°
2026-05-06 17:20 48.92668 10.25666 28645 ft 356 kts 168°
2026-05-06 17:21 48.90278 10.26640 28210 ft 356 kts 168°
2026-05-06 17:21 48.87885 10.27609 27775 ft 355 kts 168°
2026-05-06 17:21 48.85501 10.28579 27337 ft 355 kts 167°
2026-05-06 17:21 48.83118 10.29552 26904 ft 354 kts 168°
2026-05-06 17:22 48.80752 10.30515 26477 ft 351 kts 167°
2026-05-06 17:22 48.78402 10.31468 26047 ft 348 kts 167°
2026-05-06 17:22 48.76070 10.32414 25626 ft 346 kts 167°
2026-05-06 17:22 48.73753 10.33353 25203 ft 343 kts 167°
2026-05-06 17:23 48.71462 10.34281 24794 ft 340 kts 167°
2026-05-06 17:23 48.69181 10.35204 24380 ft 338 kts 167°
2026-05-06 17:23 48.66918 10.36118 23974 ft 336 kts 167°
2026-05-06 17:23 48.64661 10.37029 23563 ft 335 kts 167°
2026-05-06 17:24 48.62413 10.37925 23101 ft 334 kts 169°
2026-05-06 17:24 48.60127 10.37997 22689 ft 329 kts 190°
2026-05-06 17:24 48.57955 10.36953 22296 ft 329 kts 206°
2026-05-06 17:24 48.56076 10.34990 21901 ft 329 kts 218°
2026-05-06 17:25 48.54347 10.32725 21495 ft 328 kts 219°
2026-05-06 17:25 48.52633 10.30464 21101 ft 327 kts 219°
2026-05-06 17:25 48.50906 10.28244 20702 ft 325 kts 218°
2026-05-06 17:25 48.49186 10.26052 20313 ft 322 kts 218°
2026-05-06 17:26 48.47509 10.23898 19930 ft 320 kts 219°
2026-05-06 17:26 48.45827 10.21730 19548 ft 317 kts 219°
2026-05-06 17:26 48.44159 10.19587 19157 ft 314 kts 218°
2026-05-06 17:26 48.42496 10.17458 18789 ft 314 kts 218°
2026-05-06 17:27 48.40835 10.15332 18418 ft 313 kts 218°
2026-05-06 17:27 48.39177 10.13210 18041 ft 312 kts 219°
2026-05-06 17:27 48.37526 10.11098 17649 ft 311 kts 219°
2026-05-06 17:27 48.35882 10.08998 17272 ft 310 kts 219°
2026-05-06 17:28 48.34249 10.06914 16908 ft 306 kts 219°
2026-05-06 17:28 48.32634 10.04854 16543 ft 302 kts 219°
2026-05-06 17:28 48.31039 10.02821 16181 ft 299 kts 219°
2026-05-06 17:28 48.29456 10.00807 15832 ft 298 kts 219°
2026-05-06 17:29 48.27874 9.98794 15483 ft 298 kts 219°
2026-05-06 17:29 48.26295 9.96788 15124 ft 297 kts 219°
2026-05-06 17:29 48.24703 9.94814 14699 ft 296 kts 212°
2026-05-06 17:29 48.22773 9.93872 14350 ft 295 kts 183°
2026-05-06 17:30 48.20742 9.94332 13880 ft 302 kts 161°
2026-05-06 17:30 48.18966 9.96027 13434 ft 308 kts 138°
2026-05-06 17:30 48.17558 9.98454 13008 ft 309 kts 132°
2026-05-06 17:30 48.16233 10.00970 12606 ft 307 kts 133°
2026-05-06 17:31 48.14879 10.03410 12325 ft 304 kts 134°
2026-05-06 17:31 48.13495 10.05807 11932 ft 303 kts 135°
2026-05-06 17:31 48.12125 10.08198 11564 ft 302 kts 134°
2026-05-06 17:31 48.10772 10.10596 11156 ft 301 kts 134°
2026-05-06 17:32 48.09423 10.12993 10702 ft 302 kts 132°
2026-05-06 17:32 48.08522 10.15840 10279 ft 311 kts 102°
2026-05-06 17:32 48.08651 10.19065 9874 ft 312 kts 74°
2026-05-06 17:32 48.09575 10.21903 9451 ft 303 kts 59°
2026-05-06 17:33 48.09768 10.22371 9384 ft 303 kts 58°
2026-05-06 17:33 48.10503 10.24096 9119 ft 300 kts 57°
2026-05-06 17:33 48.11610 10.26743 8713 ft 301 kts 59°
2026-05-06 17:33 48.12673 10.29453 8311 ft 302 kts 60°
2026-05-06 17:34 48.13723 10.32171 7899 ft 302 kts 59°
2026-05-06 17:34 48.14789 10.34890 7422 ft 304 kts 62°
2026-05-06 17:34 48.15301 10.37906 6935 ft 293 kts 95°
2026-05-06 17:34 48.14709 10.40594 6587 ft 259 kts 132°
2026-05-06 17:35 48.13381 10.42287 6298 ft 250 kts 154°
2026-05-06 17:35 48.11802 10.43355 5964 ft 249 kts 160°
2026-05-06 17:35 48.10226 10.44466 5598 ft 251 kts 157°
2026-05-06 17:36 48.07466 10.44439 5004 ft 231 kts 217°
2026-05-06 17:36 48.06360 10.42770 4756 ft 225 kts 237°
2026-05-06 17:36 48.05547 10.40874 4469 ft 201 kts 241°
2026-05-06 17:36 48.04903 10.39201 4228 ft 171 kts 242°
2026-05-06 17:37 48.04327 10.37707 4006 ft 166 kts 241°
2026-05-06 17:37 48.03763 10.36280 3780 ft 153 kts 241°
2026-05-06 17:37 48.03245 10.34974 3585 ft 142 kts 241°
2026-05-06 17:37 48.02745 10.33711 3405 ft 138 kts 240°
2026-05-06 17:38 48.02275 10.32525 3205 ft 130 kts 240°
2026-05-06 17:38 48.01820 10.31359 3059 ft 129 kts 240°
2026-05-06 17:38 48.01361 10.30199 2957 ft 131 kts 240°
2026-05-06 17:38 48.00906 10.29009 2692 ft 131 kts 240°
2026-05-06 17:39 48.00458 10.27901 2469 ft 120 kts 238°
2026-05-06 17:39 48.00013 10.26802 2318 ft 128 kts 238°
2026-05-06 17:39 47.99559 10.25665 2132 ft 125 kts 238°
2026-05-06 17:39 47.99155 10.24642 2068 ft 93 kts 239°
2026-05-06 17:40 47.98917 10.24043 2073 ft 42 kts 239°
2026-05-06 17:40 47.98840 10.23846 2074 ft 8 kts 239°
2026-05-06 17:40 47.98829 10.23789 2077 ft 3 kts 284°
2026-05-06 17:40 47.98845 10.23763 2077 ft 5 kts 322°
2026-05-06 17:41 47.98876 10.23736 2077 ft 5 kts 328°
2026-05-06 17:41 47.98907 10.23687 2078 ft 8 kts 301°
2026-05-06 17:41 47.98911 10.23632 2075 ft 7 kts 258°
2026-05-06 17:41 47.98896 10.23566 2076 ft 5 kts 250°
2026-05-06 17:42 47.98889 10.23536 2076 ft 1 kts 250°
2026-05-06 17:42 47.98887 10.23528 2077 ft 1 kts 250°
2026-05-06 17:42 47.98882 10.23507 2078 ft 4 kts 250°
2026-05-06 17:42 47.98869 10.23456 2082 ft 5 kts 250°
2026-05-06 17:43 47.98859 10.23411 2082 ft 5 kts 250°
2026-05-06 17:43 47.98844 10.23349 2082 ft 7 kts 251°
2026-05-06 17:43 47.98851 10.23314 2082 ft 2 kts 327°
2026-05-06 17:43 47.98876 10.23313 2081 ft 4 kts 18°
2026-05-06 17:44 47.98890 10.23330 2081 ft 1 kts 44°
2026-05-06 17:44 47.98890 10.23331 2081 ft 0 kts 46°